Larissa, Greece

12:46 PM EET on February 22, 2017 (GMT +0200)
Larisa Air Base

Weather History for LGLR - June, 2013

Change the Weather History Date:

Friday, June 14, 2013

  Actual Average Record
Temperature  
Mean Temperature 73 °F -  
Max Temperature 84 °F 89 °F - ()
Min Temperature 62 °F 61 °F - ()
Cooling Degree Days 8    
Growing Degree Days 23 (Base 50)    
Moisture  
Dew Point 57 °F    
Average Humidity 62    
Maximum Humidity 100    
Minimum Humidity 22    
Precipitation  
Precipitation 0.00 in 0.03 in - ()
Sea Level Pressure  
Sea Level Pressure 29.92 in    
Wind  
Wind Speed 2 mph ()    
Max Wind Speed 9 mph    
Max Gust Speed -    
Visibility 6.2 miles    
Events Rain    
T = Trace of Precipitation, MM = Missing Value Source: Averaged Metar Reports

Daily Weather History Graph

Daily Weather History Graph

Search for Another Location

Airport or City:

Trip Planner

Search our weather history database for the weather conditions in past years. The results will help you decide how hot, cold, wet, or windy it might be!

Date:

Astronomy

Jun. 14, 2013 Rise Set
Actual Time 6:02 AM EEST 8:59 PM EEST
Civil Twilight 5:29 AM EEST 9:31 PM EEST
Nautical Twilight 4:48 AM EEST 10:13 PM EEST
Astronomical Twilight 4:00 AM EEST 11:00 PM EEST
Moon 11:17 AM EEST (6/14) No Moon Set
Length of Visible Light 16h 02m
Length of Day
14h 57m
Waxing Crescent, 27% of the Moon is Illuminated
Jun 14
Waxing Crescent
Jun 16
First Quarter
Jun 23
Full
Jun 30
Last Quarter
Jul 8
New

Hourly Weather History & Observations

Time (EEST) Temp. Dew Point Humidity Pressure Visibility Wind Dir Wind Speed Gust Speed Precip Events Conditions
12:50 AM 64.4 °F 60.8 °F 88% 29.92 in 6.2 mi Calm Calm - N/A   Mostly Cloudy
1:50 AM 64.4 °F 60.8 °F 88% 29.89 in 6.2 mi Calm Calm - N/A   Mostly Cloudy
2:50 AM 64.4 °F 60.8 °F 88% 29.89 in 6.2 mi Calm Calm - N/A   Mostly Cloudy
3:00 AM 64 °F 61 °F 88% 29.91 in 6 mi Calm Calm - -   Partly Cloudy
3:50 AM 62.6 °F 62.6 °F 100% 29.89 in 6.2 mi SSE 4.6 mph - N/A Rain Light Rain
4:50 AM 62.6 °F 62.6 °F 100% 29.92 in 6.2 mi Calm Calm - N/A   Mostly Cloudy
5:50 AM 62.6 °F 62.6 °F 100% 29.92 in 6.2 mi Calm Calm - N/A   Mostly Cloudy
6:50 AM 62.6 °F 62.6 °F 100% 29.92 in 6.2 mi Calm Calm - N/A   Mostly Cloudy
7:50 AM 64.4 °F 64.4 °F 100% 29.92 in 6.2 mi Calm Calm - N/A   Mostly Cloudy
8:50 AM 66.2 °F 64.4 °F 94% 29.95 in 6.2 mi Calm Calm - N/A   Mostly Cloudy
9:00 AM 66 °F 65 °F 94% 29.94 in 6 mi Calm Calm - -   Partly Cloudy
9:50 AM 73.4 °F 60.8 °F 65% 29.95 in 6.2 mi West 4.6 mph - N/A   Scattered Clouds
10:50 AM 77.0 °F 57.2 °F 50% 29.95 in 6.2 mi WSW 6.9 mph - N/A   Scattered Clouds
11:50 AM 78.8 °F 57.2 °F 47% 29.95 in 6.2 mi South 4.6 mph - N/A   Scattered Clouds
12:50 PM 82.4 °F 51.8 °F 35% 29.95 in 6.2 mi NNE 9.2 mph - N/A   Scattered Clouds
1:50 PM 84.2 °F 51.8 °F 33% 29.92 in 6.2 mi ENE 6.9 mph - N/A   Scattered Clouds
2:50 PM 84.2 °F 51.8 °F 33% 29.92 in 6.2 mi ENE 9.2 mph - N/A   Scattered Clouds
3:00 PM 84 °F 51 °F 22% 29.92 in 6 mi ENE 9.2 mph - -   Partly Cloudy
3:50 PM 84.2 °F 51.8 °F 33% 29.92 in 6.2 mi ESE 6.9 mph - N/A   Scattered Clouds
4:50 PM 84.2 °F 50.0 °F 30% 29.89 in 6.2 mi ENE 6.9 mph - N/A   Scattered Clouds
5:50 PM 84.2 °F 50.0 °F 30% 29.89 in 6.2 mi East 6.9 mph - N/A   Scattered Clouds
6:50 PM 84.2 °F 50.0 °F 30% 29.89 in 6.2 mi East 4.6 mph - N/A   Scattered Clouds
7:50 PM 82.4 °F 51.8 °F 35% 29.89 in 6.2 mi East 6.9 mph - N/A   Scattered Clouds
8:50 PM 77.0 °F 55.4 °F 47% 29.92 in 6.2 mi ENE 4.6 mph - N/A   Scattered Clouds
9:00 PM 77 °F 54 °F 35% 29.91 in 6 mi ENE 4.6 mph - -   Scattered Clouds
9:50 PM 75.2 °F 55.4 °F 50% 29.92 in 6.2 mi ENE 4.6 mph - N/A   Scattered Clouds
10:50 PM 71.6 °F 57.2 °F 60% 29.92 in 6.2 mi East 4.6 mph - N/A   Partly Cloudy
11:50 PM 69.8 °F 59.0 °F 68% 29.92 in 6.2 mi Calm Calm - N/A Rain Light Rain